RH
78 87 67 88 79 92 85 82 76 63 58 81 89 94 85 86 81 81 86 89 78 87 77 67 95 89 88 86 97 76 59 52 56 47 39 43 34 27 42 68 84 89 70
80 91 69 82 84 83 85 86 78 66 60 96 92 95 83 86 85 84 84 86 83 86 86 90 83 94 86 80 89 91 58 47 45 34 66 83 46 35 36 60 76 92 84
78 92 76 81 76 81 84 82 69 56 80 95 82 92 90 84 80 86 85 83 88 90 90 81 58 94 98 90 97 98 45 39 37 36 74 80 83 84 84 80 78 88 85
76 90 92 82 83 82 82 77 67 57 90 86 88 85 88 96 84 88 90 86 91 100 85 47 54 100 97 99 98 88 41 38 37 71 69 80 89 78 76 90 96 79 91
78 77 82 81 82 89 85 69 74 66 89 93 92 95 95 93 92 93 93 98 100 96 55 26 40 84 74 99 100 43 30 31 42 78 86 94 87 66 52 52 57 29 30
75 75 85 81 88 91 85 60 76 75 89 91 97 93 89 92 94 78 95 93 96 69 29 20 22 35 44 34 36 33 29 30 62 82 85 92 82 26 27 27 26 28 22
71 74 82 84 88 91 78 59 60 87 85 98 84 82 84 93 96 78 76 89 72 56 40 19 17 20 21 28 28 32 27 35 74 78 83 86 43 32 30 26 28 32 24
70 75 92 82 86 80 62 61 52 82 83 97 83 68 77 99 82 86 88 96 85 73 47 32 18 17 23 29 28 27 23 30 72 72 79 87 25 31 28 25 25 28 28
67 72 78 82 48 31 26 70 54 84 70 99 81 62 87 85 90 82 92 91 89 76 53 32 25 20 25 28 27 24 22 28 61 66 65 68 25 26 25 26 26 27 28
66 66 68 76 82 73 33 27 42 74 65 65 59 72 81 70 89 77 79 88 91 77 53 27 21 22 25 25 25 22 21 24 51 41 66 66 25 26 26 27 27 28 29
65 66 66 70 75 72 69 51 19 27 30 47 64 48 47 79 96 92 93 86 69 58 44 22 18 20 26 25 24 22 20 26 60 69 72 30 26 27 28 28 28 29 30
65 67 67 70 73 69 57 70 35 64 31 63 82 80 47 85 85 89 89 44 44 41 30 18 18 24 27 37 36 23 19 43 46 58 70 30 26 27 28 29 30 30 30
50 62 64 67 70 65 40 56 69 78 81 82 80 80 83 78 85 75 84 57 36 36 28 19 20 26 34 55 50 58 40 49 40 41 60 30 26 26 27 28 29 30 31
50 55 55 62 58 47 51 28 63 70 70 73 74 75 78 79 78 80 83 85 76 80 51 69 63 60 34 30 41 42 43 41 36 27 43 26 24 26 26 26 27 27 28
43 47 53 19 42 50 51 42 36 50 49 68 70 67 69 76 75 74 75 78 76 74 74 72 57 68 70 54 45 38 32 29 33 28 21 22 23 24 25 26 26 26 27
41 42 45 50 12 50 42 28 34 44 53 43 49 43 46 54 66 60 68 69 75 73 71 73 73 71 73 73 56 50 35 25 23 25 26 27 24 24 25 25 26 26 26
38 41 41 46 32 12 32 41 45 43 41 49 50 58 53 52 50 56 55 64 68 77 82 82 81 76 72 75 68 53 48 44 40 30 24 24 26 24 25 26 26 26 27
40 42 42 43 38 18 14 35 50 54 56 44 46 52 55 57 60 64 64 58 63 82 86 85 84 84 80 76 72 70 60 52 48 45 41 33 28 26 25 25 26 26 28
36 41 44 45 46 24 22 27 50 68 57 39 36 38 44 55 63 67 68 67 70 77 85 86 85 84 83 82 77 72 71 69 66 60 51 44 42 31 27 27 28 28 30
29 33 36 43 51 53 42 33 26 37 27 30 30 32 36 49 58 68 69 74 80 78 80 88 87 84 86 86 81 73 72 72 69 70 67 66 56 35 34 30 29 28 27
24 30 34 35 39 53 61 54 39 28 30 32 27 26 39 47 57 58 59 69 80 82 79 86 92 93 93 92 89 85 84 81 79 73 70 66 53 43 43 41 33 33 34
23 26 30 38 41 44 58 61 67 60 53 40 29 25 31 38 46 60 59 61 74 88 92 90 93 95 94 93 89 90 90 82 81 79 78 79 75 76 63 56 41 43 48
22 22 28 33 42 47 50 57 62 68 66 55 30 27 26 38 43 52 55 67 75 92 92 93 96 97 96 96 93 91 86 82 64 67 70 70 54 52 48 47 56 74 74
21 23 26 32 39 43 42 45 34 36 44 26 29 33 36 38 34 39 46 55 64 79 84 96 100 98 100 99 99 98 92 81 79 73 72 75 73 71 72 75 70 74 69
21 23 24 26 30 34 38 43 51 56 58 58 65 63 62 69 58 45 48 54 55 63 69 75 95 100 100 100 98 100 99 91 87 95 91 83 83 83 78 74 66 74 78
22 21 21 24 27 25 24 26 37 55 62 66 64 64 66 71 75 82 76 78 71 68 67 73 82 90 95 98 100 100 100 99 92 94 97 90 90 85 83 81 73 69 76
Wind_Speed
7 13 14 11 11 9 7 6 7 5 1 5 5 5 3 1 2 1 5 5 5 5 2 3 4 9 6 3 2 1 5 4 4 5 8 8 8 6 8 7 11 5 9
12 12 16 11 10 8 7 5 6 4 8 6 5 5 2 4 2 4 3 3 2 2 1 5 6 6 4 6 4 2 5 5 5 6 11 14 10 9 9 10 8 9 8
13 13 14 12 10 8 6 8 7 4 10 6 6 4 1 1 1 1 2 2 4 4 2 3 11 13 6 8 9 4 4 5 6 10 15 6 10 11 8 6 5 7 8
13 10 11 12 8 8 8 7 7 7 8 7 5 3 2 2 3 2 2 3 3 3 4 5 12 9 6 6 6 4 4 5 7 11 7 7 5 7 10 11 9 6 9
12 11 15 12 12 11 10 7 8 8 8 7 7 6 4 2 2 3 4 2 3 5 3 5 9 9 7 5 6 5 5 7 10 11 6 9 2 5 5 5 6 7 2
12 11 13 14 13 12 11 8 11 11 8 9 8 10 5 3 5 4 2 3 2 2 3 3 6 7 7 7 7 6 6 9 12 6 7 8 3 5 7 7 8 8 9
11 10 12 16 15 14 12 11 10 11 10 8 11 10 8 5 6 5 3 1 0 1 0 2 5 6 8 8 8 6 7 9 11 5 5 4 1 5 6 8 8 7 8
11 12 11 17 15 15 12 10 11 11 11 10 10 9 9 6 4 4 2 2 3 2 2 2 4 7 8 8 8 8 9 10 8 4 5 5 3 4 5 6 7 6 6
11 11 10 10 11 11 12 12 8 10 11 12 9 9 8 8 8 5 3 6 7 6 5 4 5 8 9 9 9 9 9 8 10 5 4 0 3 3 3 5 5 4 4
10 11 11 10 8 7 7 8 11 12 12 10 8 9 10 7 10 9 7 8 8 7 7 6 7 10 11 10 10 10 10 9 6 4 5 8 4 3 2 2 2 3 3
12 13 12 11 10 9 9 9 9 11 11 11 11 11 8 6 8 8 10 10 10 9 8 7 8 9 11 10 10 10 11 10 5 5 5 7 6 3 2 1 1 2 3
13 14 14 13 11 10 10 11 10 9 10 9 9 10 6 7 8 8 15 10 10 9 8 9 9 10 10 7 8 10 11 6 9 9 8 10 8 6 5 4 3 4 5
13 15 16 15 14 12 11 11 10 11 10 11 12 11 9 10 11 12 10 10 9 9 9 10 11 12 11 9 10 9 10 9 10 11 12 13 12 10 8 7 7 8 8
15 16 17 18 16 14 12 12 11 12 12 12 13 13 11 10 10 9 9 10 9 10 9 12 10 11 15 14 13 12 13 12 14 15 14 16 16 15 13 12 12 12 13
16 17 19 21 19 17 16 14 13 13 14 13 14 14 14 13 11 10 11 11 11 10 10 12 13 12 13 13 14 16 18 19 18 19 19 20 19 19 19 17 16 16 17
18 18 18 21 22 20 19 18 15 14 14 15 16 16 16 15 14 14 14 14 14 13 13 14 14 14 15 15 15 17 20 22 23 23 23 22 23 23 23 22 21 20 21
20 19 21 21 23 25 22 20 19 18 17 17 17 18 18 19 19 18 17 17 17 15 15 15 16 17 17 17 18 18 19 21 22 25 27 28 28 28 27 27 25 25 25
23 23 23 23 25 26 26 23 21 20 19 20 20 20 21 21 22 21 21 21 19 17 16 17 17 17 19 20 21 21 20 22 24 23 25 29 31 31 32 31 29 28 28
25 24 24 25 26 28 28 27 23 21 22 22 23 24 23 24 25 24 24 24 22 21 21 20 19 20 20 22 22 23 23 24 24 26 29 30 32 34 35 35 35 32 31
24 24 25 26 27 29 29 31 31 28 29 27 27 28 28 28 28 28 27 26 25 26 27 25 26 24 23 22 20 23 25 27 27 30 31 30 35 36 37 38 37 35 34
22 23 24 25 28 25 27 30 31 32 31 30 30 30 31 31 31 31 32 30 30 30 30 29 27 27 27 24 21 26 26 29 30 34 36 37 40 37 36 36 38 33 29
16 21 22 22 23 24 24 24 24 24 26 29 29 31 33 32 33 33 34 34 33 32 32 31 30 30 31 26 27 24 23 24 29 31 32 33 35 31 34 34 30 25 25
8 13 18 20 21 21 24 23 23 23 26 28 31 34 36 34 33 33 34 34 34 33 36 34 33 33 34 32 32 28 12 17 18 20 28 29 24 23 23 22 22 23 22
13 8 8 13 16 19 20 22 24 28 30 30 30 30 29 31 32 32 31 33 34 35 36 34 33 34 35 37 31 36 39 32 16 14 17 22 22 20 21 25 23 21 24
19 16 9 6 9 13 16 18 23 25 29 29 26 24 26 27 30 31 31 31 33 34 35 34 32 33 35 38 39 33 37 41 41 37 29 32 28 28 29 27 29 25 23
20 18 17 14 11 10 12 15 18 22 22 23 23 21 22 22 24 27 29 30 32 33 35 34 34 34 36 38 40 41 43 35 40 41 39 39 37 36 31 29 31 34 26
Wind_Direction
162 182 165 166 185 195 214 243 273 303 31 123 112 105 95 98 51 106 184 213 255 234 350 105 134 190 187 192 95 86 151 125 104 79 66 41 40 57 80 132 75 39 26
161 177 167 176 195 207 220 246 282 287 137 133 115 130 107 97 115 134 122 144 156 129 122 77 135 151 169 213 93 124 131 111 101 82 67 34 48 66 71 86 77 68 35
157 184 175 184 200 220 247 254 274 248 139 145 130 115 67 81 269 156 175 201 163 145 209 138 133 129 134 131 165 156 124 112 99 86 76 74 15 61 65 89 78 59 64
162 185 180 192 203 208 223 258 258 162 145 142 142 157 166 132 289 140 178 237 123 137 192 154 144 133 127 122 131 144 129 113 100 76 69 87 60 44 66 57 58 77 65
165 168 195 206 196 209 236 277 192 170 171 149 159 163 191 198 274 229 220 115 138 155 161 133 152 148 149 143 149 146 125 112 98 71 86 103 81 69 70 66 37 37 38
167 170 216 198 201 214 242 259 204 171 174 172 177 196 176 199 230 267 135 138 205 100 73 141 164 164 153 142 151 149 127 117 88 97 91 85 152 66 68 58 47 44 45
170 176 203 190 202 225 245 242 204 170 190 194 211 201 211 207 247 259 287 240 112 45 98 166 179 177 158 161 158 148 137 130 104 113 111 107 125 85 64 55 49 36 38
177 178 193 195 211 222 238 221 199 185 201 208 221 214 217 206 217 256 156 220 266 297 284 231 194 186 177 170 165 154 148 138 89 149 139 173 143 84 55 48 53 42 31
182 182 188 199 215 217 213 211 197 198 210 217 235 223 223 227 231 240 230 237 254 267 269 240 209 194 189 182 176 167 158 154 136 193 149 167 147 103 60 44 35 42 38
188 189 190 190 204 205 211 207 207 211 225 224 246 233 231 214 237 248 229 237 251 261 265 241 215 202 196 194 189 179 168 163 127 188 159 227 196 135 78 51 25 11 14
197 198 195 199 200 199 207 233 214 220 223 229 244 248 244 228 280 251 238 250 256 266 265 244 224 210 206 204 201 193 184 173 213 211 205 215 213 192 187 229 325 333 331
204 205 204 202 202 200 197 217 221 226 227 228 232 244 229 227 233 222 254 270 259 258 250 233 223 217 213 208 246 217 204 206 217 226 225 221 224 223 223 243 264 279 289
211 207 207 207 204 204 208 205 216 207 220 221 221 219 227 228 242 249 254 283 262 255 253 235 226 222 222 215 215 230 223 228 235 236 231 231 234 240 240 245 258 265 271
215 214 213 205 209 210 216 222 213 214 217 216 220 219 223 232 236 235 239 249 250 244 240 237 228 232 235 229 225 232 233 231 240 232 237 241 243 247 249 251 256 265 269
218 217 214 215 210 216 218 227 225 227 229 222 222 227 226 230 234 238 235 238 242 238 237 241 235 233 244 242 242 238 233 233 238 243 244 251 249 253 256 257 259 265 271
222 220 217 219 221 216 225 233 235 236 234 241 236 244 241 237 239 239 236 236 237 234 233 233 237 239 238 241 240 243 247 245 244 246 250 254 255 256 260 262 264 266 270
232 228 223 221 225 226 227 234 238 241 245 245 248 243 249 250 248 245 245 242 244 238 238 234 236 235 239 240 243 241 243 247 249 254 252 255 259 261 261 265 266 269 271
236 233 230 227 226 231 234 233 237 240 243 250 253 255 254 254 253 248 250 252 248 244 239 239 238 241 246 246 250 252 249 251 250 250 256 260 260 261 267 269 269 271 272
243 241 238 232 231 234 240 241 238 237 243 252 258 258 259 256 251 250 252 256 250 246 243 244 243 239 241 246 247 248 248 249 253 254 254 255 258 265 267 269 273 272 272
252 246 242 239 234 236 236 242 245 245 251 251 255 260 260 255 254 250 253 253 252 251 248 244 244 242 242 244 247 252 255 256 253 255 257 258 263 262 266 271 271 271 276
257 251 247 240 239 235 235 238 245 250 253 254 257 263 259 257 254 255 255 252 249 253 254 246 245 246 244 243 247 250 255 254 255 255 259 262 263 264 266 266 271 272 273
262 254 252 243 241 237 240 244 244 250 254 258 262 266 266 261 257 253 253 253 250 249 250 248 238 240 248 244 242 253 261 269 259 256 257 256 262 256 258 259 266 259 265
318 267 245 241 239 233 239 245 247 250 245 254 261 266 269 264 259 254 253 252 251 245 250 253 247 242 244 245 238 234 246 245 272 254 247 258 258 254 255 255 254 259 263
9 337 276 245 241 242 244 247 258 259 255 264 268 271 271 268 263 258 253 251 249 249 251 249 245 246 244 244 244 245 244 248 270 278 261 263 262 254 251 259 250 265 263
24 22 2 307 255 246 252 254 260 262 261 266 267 266 264 263 266 263 254 251 249 247 251 257 252 246 244 245 249 243 247 254 257 251 262 258 260 259 261 261 248 260 258
34 32 30 28 12 336 307 287 266 261 264 270 274 276 275 271 269 270 264 254 254 252 254 256 256 254 249 245 246 247 241 242 249 249 250 258 256 258 258 258 260 269 258